Location: Argonnex
(45.9500°N, 6.1333°E)
Time: 09:54:15
(UTC+00:00)

Cosmos 2266 Rocket - Pass Details

Date: 29 September 2023
Orbit: 933 x 1008 km, 82.9° (Epoch: 10 December)

Event Time Altitude Azimuth Distance (km) Brightness Sun altitude
Exits shadow 01:52:26 30° 110° (ESE) 1,701 5.4 -35.9°
Maximum altitude 01:53:48 33° 86° (E) 1,613 5.4 -35.7°
Drops below altitude 10° 01:59:22 10° 25° (NNE) 2,786 7.1 -35.0°
Sets 02:02:10 0° 17° (NNE) 3,746 7.8 -34.6°
